Location: Unspecified
(0.0000°N, 0.0000°E)
Time: 06:00:52
(UTC+00:00)

N. Korean satellite - Pass Details

Date: 11 August 2020
Orbit: 453 x 506 km, 97.2° (Epoch: 13 August)

Event Time Altitude Azimuth Distance (km) Brightness Sun altitude
Rises 04:45:12 0° 28° (NNE) 2,544 10.9 -19.3°
Reaches altitude 10° 04:47:25 10° 39° (NE) 1,675 10.1 -18.7°
Maximum altitude 04:50:37 30° 101° (E) 909 8.5 -18.0°
Drops below altitude 10° 04:53:52 10° 164° (SSE) 1,704 9.3 -17.2°
Sets 04:56:08 0° 174° (S) 2,596 10.2 -16.7°
